Weather Roundup
Issued by NWS

Home | Current Version | Previous Version | Graphics & Text | Print | Product List | Glossary Off
Versions: 1 2 3 4 5 6 7 8 9 10 11 12 13 14 15 16 17 18 19 20 21 22 23 24 25 26 27 28 29 30 31 32 33 34 35 36 37 38 39 40 41 42 43 44 45 46 47 48 49 50

000
NZUS93 KARX 261810
HRRWXR

CURRENT HOURLY OBSERVATIONS ACROSS
MUCH OF THE UPPER MISSISSIPPI VALLEY
NATIONAL WEATHER SERVICE LA CROSSE WI
100 PM CDT TUE MAY 26 2015


...SOUTHEAST MINNESOTA...


CITY           SKY/WX    TMP DP  RH WIND       PRES   REMARKS
ROCHESTER      LGT RAIN  63  60  90 N13       29.77S
ROCHESTER/MAYO CLOUDY    62  62  99 NW8       29.75S
WINONA         CLOUDY    63  61  94 N3        29.72F
AUSTIN         LGT RAIN  63  61  94 NW6       29.76S
ALBERT LEA     LGT RAIN  63  61  94 W7        29.77R
DODGE CENTER   LGT RAIN  63  61  94 NW6       29.77R
PRESTON        LGT RAIN  60  58  94 N10       29.74F
OWATONNA       LGT RAIN  63  59  88 NW3       29.77R
FARIBAULT      LGT RAIN  63  61  94 NW5       29.77S
$$

...ELSEWHERE IN MINNESOTA...


CITY           SKY/WX    TMP DP  RH WIND       PRES   REMARKS
MINNEAPOLIS    LGT RAIN  57  55  93 N9        29.79S
INTNL FALLS    MOSUNNY   71  52  50 SE8       29.82F
DULUTH         CLOUDY    61  53  75 E10       29.85F
RED WING       LGT RAIN  64  61  88 CALM      29.74F
REDWOOD FALLS  LGT RAIN  58  55  90 N6        29.81S
MANKATO        CLOUDY    59  57  94 NE8       29.78S
WORTHINGTON    CLOUDY    57  52  82 N12       29.83R
FAIRMONT       CLOUDY    57  54  88 N6        29.80R
$$

...SOUTHWEST WISCONSIN...


CITY           SKY/WX    TMP DP  RH WIND       PRES   REMARKS
LA CROSSE      CLOUDY    67  62  84 CALM      29.71F
PRAIRIE DU CHI RAIN      65  64  95 CALM      29.66F
BOSCOBEL       LGT RAIN  68  65  90 E7        29.69R
LONE ROCK      CLOUDY    68  65  90 NE7       29.71F
PLATTEVILLE    CLOUDY    70  66  85 S21       29.71F
FORT MC COY    RAIN      63  61  94 NE13      29.72F
CAMP DOUGLAS   LGT RAIN  64  64 100 N6        29.75F FOG
VIROQUA        CLOUDY    63  63 100 N6        29.71F
WIS DELLS      HVY RAIN  64  62  94 E9        29.75S
$$

...ELSEWHERE IN WISCONSIN...


CITY           SKY/WX    TMP DP  RH WIND       PRES   REMARKS
MILWAUKEE      LGT RAIN  62  59  90 SE15      29.81F FOG
MADISON        LGT RAIN  68  65  90 SE12      29.71F FOG
GREEN BAY      CLOUDY    73  67  81 S22       29.81R
EAU CLAIRE     LGT RAIN  64  59  83 NE6       29.75F
BLACK RVR FLS  LGT RAIN  64  63  99 NE9       29.73F
MEDFORD        LGT RAIN  66  61  84 S6        29.81F
WAUSAU         TSTM      65  62  90 S18G24    29.81R FOG
WIS RAPIDS     LGT RAIN  64  60  87 NE7       29.80F
MARSHFIELD     RAIN      64  59  83 CALM      29.80F
RICE LAKE      RAIN      64  60  84 N5        29.80F
$$

...NORTHEAST IOWA...


CITY           SKY/WX    TMP DP  RH WIND       PRES   REMARKS
DECORAH        LGT RAIN  63  63 100 VRB5G12   29.69F
MASON CITY     LGT RAIN  64  60  87 W13       29.78R
CHARLES CITY   LGT RAIN  61  61 100 N12       29.75S
OELWEIN        PTSUNNY   63  61  94 N9        29.70F FOG
$$

...ELSEWHERE IN IOWA...


CITY           SKY/WX    TMP DP  RH WIND       PRES   REMARKS
DES MOINES     LGT RAIN  65  61  87 W10       29.80S
IOWA CITY      CLOUDY    70  62  76 W21G28    29.72R
FORT DODGE     CLOUDY    61  57  88 W5        29.81R
$$

...NORTHERN ILLINOIS...


CITY           SKY/WX    TMP DP  RH WIND       PRES   REMARKS
CHICAGO-OHARE  RAIN      68  67  96 S14G22    29.80S FOG
CHICAGO-MIDWAY LGT RAIN  73  68  84 S13G23    29.80S
MOLINE         MOSUNNY   76  63  64 S20G32    29.72F
ROCKFORD       CLOUDY    73  65  75 SW22G30   29.77R
PEORIA         LGT RAIN  76  63  64 SW22G31   29.81F
$$

NOTE: "FAIR" INDICATES FEW OR NO CLOUDS BELOW 12,000 FEET WITH NO
SIGNIFICANT WEATHER AND/OR OBSTRUCTIONS TO VISIBILITY. WIND
SPEEDS ARE IN MILES-PER-HOUR.



USA.gov is the U.S. government's official web portal to all federal, state and local government web resources and services.